User: anonymous   Login
Location: Caltech
(34.1382°N, 118.1253°W)
Time: 19:38:58
(UTC-07:00)
Language:

Cosmos 2251 Rocket - Orbit

View from above orbital plane
View from above orbital plane
View from above satellite
View from above satellite

Ground track
Ground track

The orbit data is extracted from the following two-line orbital elements,

1 22676U 93036B   18169.53711000 -.00000018 +00000-0 +29842-5 0  9996
2 22676 074.0423 231.8364 0018530 172.8508 187.2912 14.33956106307570
Epoch (UTC): 18 June 2018 12:53:26
Eccentricity: 0.0018530
inclination: 74.0423°
perigee height: 765 km
apogee height: 792 km
right ascension of ascending node: 231.8364°
argument of perigee: 172.8508°
revolutions per day: 14.33956106
mean anomaly at epoch: 187.2912°
orbit number at epoch: 30757

The dashed part of the orbit path shows where the satellite is in the earth's shadow,  

DLR